FW7645 Weather Reports


time (UTC)temp
C
wind
direction
speed
KPH
gust
KPH
rain 1hr
cm
rain 24hr
cm
rain mn
cm
humidity
%
barometer
mb
20260507124555 7 0 0.0 1.6 0.00 0.28 0.00 63 1013.9
20260507123040 7 0 0.0 3.2 0.00 0.28 0.00 66 1013.9
20260507121540 6 0 0.0 1.6 0.00 0.28 0.00 72 1013.8
20260507120039 5 0 0.0 1.6 0.00 0.28 0.00 74 1013.7
20260507114546 4 0 0.0 0.0 0.00 0.53 0.00 80 1013.5
20260507113037 3 0 0.0 0.0 0.00 0.53 0.00 82 1013.4
20260507111537 3 0 0.0 0.0 0.00 0.53 0.00 83 1013.3
20260507110043 3 0 0.0 0.0 0.00 0.53 0.00 84 1013.1
20260507104548 3 0 0.0 0.0 0.00 0.58 0.00 83 1012.9
20260507103038 3 0 0.0 0.0 0.00 0.58 0.00 82 1013.0
20260507101536 3 0 0.0 0.0 0.00 0.58 0.00 80 1012.8
20260507100039 3 0 0.0 1.6 0.00 0.58 0.00 77 1012.8
20260507094536 3 0 0.0 0.0 0.00 0.58 0.00 77 1012.7
20260507093042 4 0 0.0 0.0 0.00 0.58 0.00 76 1012.4
20260507091543 5 0 0.0 0.0 0.00 0.58 0.00 73 1012.5
20260507090037 5 0 0.0 0.0 0.00 0.58 0.00 71 1012.7
20260507084538 5 0 0.0 0.0 0.00 0.58 0.00 67 1012.4
20260507083038 6 0 0.0 0.0 0.00 0.58 0.00 68 1012.6
20260507081536 6 0 0.0 1.6 0.00 0.58 0.00 65 1012.7
20260507080041 7 0 0.0 1.6 0.00 0.58 0.00 62 1012.6
20260507074545 7 0 0.0 3.2 0.00 0.58 0.00 59 1012.7
20260507073044 7 245 0.0 3.2 0.00 0.58 0.00 59 1012.8
20260507071538 7 250 1.6 4.8 0.00 0.58 0.00 60 1012.7
20260507070041 7 0 0.0 3.2 0.00 0.58 0.00 58 1012.5
20260507064537 7 0 0.0 1.6 0.00 0.58 0.00 59 1012.8
20260507063053 7 0 0.0 4.8 0.00 0.58 0.00 59 1012.8
20260507061546 7 330 0.0 6.4 0.00 0.58 0.00 60 1013.0
20260507060045 8 0 0.0 1.6 0.00 0.58 0.00 62 1013.1
20260507054536 8 0 0.0 3.2 0.00 0.58 0.00 60 1013.2
20260507053039 8 0 0.0 3.2 0.00 0.58 0.00 61 1013.0
20260507051544 8 0 0.0 4.8 0.00 0.58 0.00 59 1013.2
20260507050039 8 278 0.0 8.0 0.00 0.58 0.00 59 1013.2
20260507044542 9 236 0.0 3.2 0.00 0.58 0.00 61 1013.1
20260507043037 9 255 0.0 1.6 0.00 0.58 0.00 63 1013.2
20260507041535 9 0 0.0 1.6 0.00 0.58 0.00 63 1013.0
20260507040035 9 0 0.0 0.0 0.00 0.58 0.00 66 1012.9
20260507034542 9 0 0.0 0.0 0.00 0.58 0.58 64 1012.9
20260507033042 9 282 0.0 3.2 0.00 0.58 0.58 63 1012.8
20260507031539 10 0 0.0 3.2 0.00 0.58 0.58 67 1012.7
20260507030035 10 314 0.0 1.6 0.00 0.58 0.58 71 1012.5
20260507024538 10 293 1.6 9.7 0.00 0.58 0.58 73 1012.4
20260507023037 10 221 0.0 8.0 0.00 0.58 0.58 78 1012.3
20260507021542 10 0 0.0 0.0 0.00 0.58 0.58 78 1012.1
20260507020043 10 0 0.0 4.8 0.00 0.58 0.58 77 1012.1
20260507014547 10 0 0.0 1.6 0.00 0.58 0.58 78 1012.6
20260507013047 11 0 0.0 0.0 0.00 0.58 0.58 76 1012.5
20260507011537 11 0 0.0 4.8 0.00 0.58 0.58 76 1012.7
20260507010051 11 264 0.0 4.8 0.00 0.58 0.58 75 1012.8
20260507004540 11 0 0.0 4.8 0.00 0.58 0.58 76 1012.5
20260507003039 11 0 0.0 3.2 0.00 0.58 0.58 75 1012.2
20260507001539 11 0 0.0 3.2 0.00 0.58 0.58 77 1011.8
20260507000039 11 0 1.6 6.4 0.00 0.58 0.58 78 1011.8
20260506234537 11 184 0.0 3.2 0.00 0.58 0.58 79 1011.5
20260506233054 11 242 3.2 8.0 0.00 0.58 0.58 78 1011.2
20260506231542 11 289 0.0 3.2 0.00 0.58 0.58 79 1011.1
20260506230041 11 312 3.2 12.9 0.00 0.58 0.58 77 1011.1
20260506224540 12 314 1.6 9.7 0.00 0.58 0.58 79 1011.1
20260506223035 12 354 3.2 11.3 0.00 0.58 0.58 77 1010.8
20260506221539 12 0 0.0 4.8 0.00 0.58 0.58 77 1010.3
20260506220036 13 280 1.6 11.3 0.00 0.58 0.58 77 1010.3
20260506214537 13 57 0.0 12.9 0.00 0.58 0.58 78 1010.1
20260506213041 13 274 3.2 14.5 0.00 0.58 0.58 77 1009.8
20260506211539 13 240 3.2 12.9 0.00 0.58 0.58 78 1009.4
20260506210038 14 262 1.6 11.3 0.00 0.58 0.58 78 1009.2
20260506204545 14 89 1.6 9.7 0.00 0.71 0.58 78 1009.0
20260506203037 14 234 1.6 6.4 0.00 0.71 0.58 79 1008.9
20260506201536 15 342 3.2 9.7 0.00 0.71 0.58 80 1008.9
20260506200042 14 318 0.0 14.5 0.00 0.71 0.58 82 1008.7
20260506194546 15 0 3.2 14.5 0.00 0.71 0.58 81 1008.6
20260506193041 15 248 3.2 11.3 0.00 0.71 0.58 83 1008.2
20260506191539 15 170 1.6 6.4 0.00 0.71 0.58 85 1008.1
20260506190037 16 79 0.0 3.2 0.00 0.71 0.58 85 1007.8
20260506184537 15 0 0.0 6.4 0.03 0.71 0.58 89 1007.7
20260506183039 15 0 0.0 4.8 0.05 0.71 0.58 89 1008.0
20260506181537 15 109 0.0 3.2 0.05 0.71 0.58 90 1007.9
20260506180040 15 137 0.0 3.2 0.05 0.71 0.58 91 1008.0
20260506174537 15 0 0.0 1.6 0.03 0.69 0.56 91 1007.8
20260506173044 15 122 0.0 6.4 0.00 0.66 0.53 90 1007.8
20260506171540 15 0 0.0 3.2 0.00 0.66 0.53 89 1007.7
20260506170041 15 127 0.0 3.2 0.03 0.66 0.53 88 1007.5
20260506164550 15 323 1.6 6.4 0.03 0.66 0.53 89 1007.3
20260506163042 15 110 0.0 3.2 0.03 0.66 0.53 90 1007.6
20260506161538 15 115 0.0 6.4 0.03 0.66 0.53 91 1007.6
20260506160046 14 96 0.0 1.6 0.00 0.64 0.51 92 1007.5
20260506154550 14 151 0.0 1.6 0.00 0.64 0.51 91 1007.7
20260506153038 13 0 0.0 1.6 0.00 0.64 0.51 91 1007.5
20260506151539 13 0 0.0 3.2 0.03 0.64 0.51 91 1007.4
20260506150038 13 114 0.0 3.2 0.03 0.64 0.51 91 1007.3
20260506144537 13 0 0.0 1.6 0.05 0.64 0.51 91 1007.0
20260506143038 13 0 0.0 6.4 0.05 0.64 0.51 91 1007.3
20260506141554 13 0 0.0 8.0 0.05 0.61 0.48 91 1006.9
20260506140040 13 0 0.0 4.8 0.05 0.61 0.48 90 1007.1
20260506134537 13 146 0.0 3.2 0.03 0.58 0.46 91 1007.0
20260506133037 13 0 0.0 1.6 0.03 0.58 0.46 91 1007.2
20260506131538 13 0 0.0 1.6 0.05 0.56 0.43 90 1007.4
20260506130037 13 0 0.0 4.8 0.13 0.56 0.43 90 1007.3